Welcome to the New NWS' Forecast!
Most changes are behind the scenes, but click here for differences you might notice.
Latest weather observations around

Mountain Home, Baxter County Regional Airport (KBPK)

Using English Units (Switch to International System of Units)
Date/ Time (CDT) Wind (mph) Vis. (mi) Weather Sky Cond. Temp (°F) Rel. Humidity Wind Chill (°F) Heat Index (°F) Pressure Precip. (in)
Air Dwpt 6 hour Altimeter (inHg) Sea level (inHg) 1 hr 3 hr 6 hr
Max Min
Apr 28 05:53 SE 7 10 Mostly Clear FEW110 54 51     90%     29.75 29.74      
Apr 28 04:53 ESE 5 10 Mostly Cloudy BKN120 54 51     90%     29.81 29.79      
Apr 28 03:53 ESE 5 10 Clear CLR 55 50     83%     29.8 29.79      
Apr 28 02:53 E 3 10 Mostly Clear FEW027 55 50     83%     29.81 29.79      
Apr 28 01:53 SE 5 10 Mostly Clear FEW027 56 49     77%     29.81 29.8      
Apr 28 00:53 SSE 5 10 Clear CLR 56 49     77%     29.8 29.79      
Apr 27 23:53 Calm 10 Partly Cloudy SCT110 56 50     80%     29.8 29.79      
Apr 27 22:53 SSE 3 10 Clear CLR 58 49     72%     29.78 29.77      
Apr 27 21:53 SSE 7 10 Clear CLR 59 47     64%     29.78 29.77      
Apr 27 20:53 SSE 5 10 Clear CLR 60 48     64%     29.75 29.74      
Apr 27 19:53 SSE 5 10 Mostly Clear FEW110 62 47     58%     29.74 29.73      
Apr 27 18:53 SE 6 10 Clear CLR 64 45     50%     29.73 29.72      
Apr 27 17:53 SSE 7 10 Clear CLR 66 45     47%     29.73 29.72      
Apr 27 16:53 6 10 Clear CLR 65 43     45%     29.74 29.73      
Apr 27 15:53 S 8 10 Clear CLR 65 43     45%     29.76 29.75      
Apr 27 14:53 S 8 10 Clear CLR 64 44     48%     29.78 29.78      
Apr 27 13:53 5 10 Clear CLR 62 44     52%     29.78 29.77      
Apr 27 12:53 3 10 Clear CLR 59 42     53%     29.81 29.8      
Apr 27 11:53 7 10 Clear CLR 56 41     57%     29.83 29.82      
Apr 27 10:53 5 10 Clear CLR 53 41     63%     29.81 29.81      
Apr 27 09:53 6 10 Clear CLR 51 40     65%     29.8 29.8      
Apr 27 08:53 Calm 10 Clear CLR 49 40     71%     29.78 29.78      
Apr 27 07:53 6 10 Clear CLR 46 40     79% 43   29.76 29.76      
Apr 27 06:53 Calm 10 Clear CLR 42 40     92%     29.75 29.75      
Apr 27 05:53 3 10 Mostly Clear FEW017 43 40     89% 41   29.72 29.72      
Apr 27 05:32 Calm 10 Partly Cloudy SCT016 43 41     93%     29.72        
Apr 27 04:53 5 10 Mostly Cloudy BKN016 44 41     89% 41   29.7 29.7      
Apr 27 04:11 Calm 10 Mostly Cloudy BKN016 45 41     86%     29.68        
Apr 27 03:53 3 10 Partly Cloudy SCT015 45 41     86% 44   29.68 29.67      
Apr 27 03:03 6 10 Partly Cloudy FEW017 SCT023 45 42     90% 42   29.66        
Apr 27 02:53 7 10 Mostly Cloudy BKN017 BKN022 45 41     86% 41   29.66 29.65      
Apr 27 01:53 6 10 Cloudy OVC017 46 42     86% 43   29.66 29.65      
Apr 27 00:53 NNW 8 10 Cloudy OVC016 46 42     86% 42   29.66 29.66     0
Apr 27 00:45 5 10 Cloudy OVC016 46 42     86% 44   29.66        
Apr 26 23:53 7 10 Cloudy OVC014 47 43     86% 44   29.66 29.65      
Apr 26 23:09 NW 10 10 Cloudy OVC014 47 43     86% 42   29.64        
Apr 26 22:53   10 Cloudy OVC015 47 43     86%     29.64 29.63      
Apr 26 22:08 NNW 8 10 Cloudy OVC015 46 43     89% 42   29.63        
Apr 26 21:53 6 10 Cloudy BKN012 OVC018 47 43     86% 44   29.61 29.61   0  
Apr 26 20:53 6 10 Cloudy OVC010 47 45     93% 44   29.56 29.55 0    
Apr 26 19:53 NNW 7 10 Light Rain BKN008 BKN012 OVC018 49 47     93% 46   29.53 29.52 0    
Apr 26 18:53 7 3 Light Rain and Fog/Mist BKN005 OVC011 50 50     100% 47   29.51 29.49 0   1
Apr 26 18:30 7 4 Light Rain and Fog/Mist BKN005 OVC012 51 50     96%     29.49   0    
Apr 26 18:16 NW 8 4 Light Rain and Fog/Mist BKN003 OVC012 51 50     96%     29.49   0    
Apr 26 18:09 NNW 8 2.5 Light Rain and Fog/Mist BKN003 BKN008 OVC012 52 51     97%     29.47   0    
Apr 26 17:57 NW 10 1.75 Heavy Rain and Fog/Mist BKN003 BKN007 OVC012 53 52     96%     29.5   0    
Apr 26 17:53 NW 13 3 Light Rain and Fog/Mist OVC003 55 55     100%     29.49 29.47 0    
Apr 26 17:14 SSE 5 10 Light Rain FEW004 SCT042 OVC100 57 56     96%     29.41   0    
Apr 26 16:56 ESE 5 5 Rain and Fog/Mist SCT003 BKN044 OVC090 57 56     96%     29.43   0    
Apr 26 16:15 W 6 7 Light Rain OVC003 57 57     100%     29.49   0    
Apr 26 16:06 3 5 Rain and Fog/Mist OVC003 57 56     96%     29.47   0    
Apr 26 15:53 S 3 4 Rain and Fog/Mist OVC004 57 56     96%     29.48 29.47 0 1  
Apr 26 15:51 SSW 3 4 Rain and Fog/Mist OVC005 57 55     94%     29.49   0    
Apr 26 15:38 S 6 5 Rain and Fog/Mist BKN005 OVC095 57 56     96%     29.48   0    
Apr 26 15:33 SSW 3 5 Rain and Fog/Mist SCT006 BKN050 OVC095 57 56     96%     29.49   0    
Apr 26 15:01 SE 8 8 Thunderstorms and Rain FEW009 FEW070 OVC095 57 56     96%     29.47   0    
Apr 26 14:53 SE 9 9 Rain FEW006 FEW070 OVC095 57 56     96%     29.47 29.45 0    
Apr 26 14:46 SSE 8 9 Rain FEW006 SCT070 OVC100 57 55     93%     29.48   0    
Apr 26 14:39 SE 13 10 Rain SCT006 SCT070 OVC100 57 56     96%     29.47   0    
Apr 26 14:24 SSE 13 10 Light Rain SCT006 BKN090 OVC110 57 56     96%     29.49   0    
Apr 26 13:53 ESE 10 5 Thunderstorms and Rain and Fog/Mist FEW005 BKN080 OVC100 57 56     96%     29.49 29.47 0    
Apr 26 13:25 E 9 4 Heavy Rain and Fog/Mist FEW005 BKN070 OVC095 56 55     97%     29.51   0    
Apr 26 13:04 S 8 3 Thunderstorms and Heavy Rain and Fog/Mist SCT004 BKN031 OVC080 56 54     93%     29.56   0    
Apr 26 12:53 3 5 Thunderstorms and Heavy Rain and Fog/Mist BKN004 BKN040 OVC090 56 54     93%     29.56 29.54 0   1
Apr 26 12:38 SE 7 5 Thunderstorms and Rain and Fog/Mist BKN004 BKN050 OVC070 55 54     96%     29.55   0    
Apr 26 12:09 SE 10 5 Thunderstorms and Rain and Fog/Mist BKN003 BKN080 OVC100 55 54     96%     29.57   0    
Apr 26 12:00 3 6 Thunderstorms and Rain and Fog/Mist SCT003 BKN065 OVC095 54 54     100%     29.56   0    
Apr 26 11:53 SSE 10 6 Thunderstorms and Rain and Fog/Mist FEW060 BKN075 OVC095 54 53     97%     29.57 29.56 0    
Apr 26 11:21 S 7 3 Thunderstorms and Rain and Fog/Mist BKN046 OVC070 54 52     93%     29.61   0    
Apr 26 11:08 SSW 9 1.75 Thunderstorms and Heavy Rain and Fog/Mist BKN045 OVC060 54 53     97%     29.63   0    
Apr 26 11:04 5 2.5 Heavy Rain and Fog/Mist BKN050 OVC065 54 53     97%     29.61   0    
Apr 26 10:53 SSW 7 10 Thunderstorms and Rain OVC065 54 52     93%     29.59 29.57 0    
Apr 26 10:51 7 10 Thunderstorms and Rain OVC065 54 52     94%     29.58   0    
Apr 26 10:07 E 7 9 Light Rain FEW044 OVC070 53 52     96%     29.57   0    
Apr 26 09:53   5 Heavy Rain and Fog/Mist SCT046 OVC070 53 52     96%     29.57 29.56 1 1  
Apr 26 09:45 6 6 Light Rain and Fog/Mist SCT042 OVC075 53 52     96%     29.56   1    
Apr 26 09:37 ENE 6 3 Thunderstorms and Heavy Rain and Fog/Mist BKN033 BKN060 OVC075 53 53     100%     29.56   1    
Apr 26 09:30 5 3 Thunderstorms and Rain and Fog/Mist FEW014 BKN029 OVC070 53 52     96%     29.58   1    
Apr 26 09:21 6 1 Thunderstorms and Heavy Rain and Fog/Mist SCT014 OVC020 53 53     100%     29.57   1    
Apr 26 09:16 6 0.75 Thunderstorms and Heavy Rain and Fog/Mist FEW005 BKN013 OVC037 54 53     97%     29.59   1    
Apr 26 09:10 NW 14 1.75 Thunderstorms and Heavy Rain and Fog/Mist SCT008 BKN016 OVC060 58 56     93%         0    
Apr 26 09:04 NW 10 10 Thunderstorms and Rain BKN016 BKN034 OVC060 61 59     93%     29.58   0    
Apr 26 08:53 Calm 10 Cloudy FEW018 BKN060 OVC095 63 58     84%     29.52 29.49      
Apr 26 08:51 ESE 3 10 Cloudy FEW018 BKN060 OVC095 63 57     83%     29.52        
Apr 26 07:53 SSE 7 10 Cloudy OVC050 60 57     90%     29.53 29.51      
Apr 26 05:53 S 5 10 Light Rain FEW043 FEW080 BKN100 59 57     93%     29.52 29.49 0    
Apr 26 05:38 S 5 10 Light Rain BKN090 OVC110 59 57     93%     29.54   0    
Apr 26 05:23 SSE 5 9 Light Rain BKN085 OVC110 59 58     96%     29.55   0    
Apr 26 05:15 S 6 9 Rain BKN085 OVC110 59 58     96%     29.57   0    
Apr 26 05:00 S 7 10 Light Rain SCT085 OVC110 59 58     96%     29.59   0    
Apr 26 04:53 Calm 10 Light Rain SCT085 OVC110 59 58     96%     29.58 29.55 0    
Apr 26 03:53 S 6 10 Light Rain OVC090 60 58     93%     29.59 29.57 0 0  
Apr 26 02:53 NNW 13 5 Heavy Rain SCT030 SCT039 OVC060 66 59     78%     29.61   0    
Apr 26 01:53 SSW 3 10 Cloudy OVC031 68 60     76%     29.53 29.5      
Apr 26 00:53 SSE 5 10 Clear CLR 67 59     76%     29.49 29.46      
Apr 25 23:53 SSE 5 10 Cloudy BKN039 OVC050 68 58     70%     29.51 29.49      
Apr 25 22:53 SSE 3 10 Mostly Cloudy BKN050 68 58     70%     29.53 29.5      
Apr 25 21:53 S 5 10 Clear CLR 69 57     65%     29.51 29.48      
Apr 25 20:53 SSE 6 10 Cloudy OVC049 70 57     63%     29.5 29.48      
Apr 25 19:53 SSE 5 10 Cloudy OVC047 72 57     59%   72 29.49 29.47      
Apr 25 17:53 S 11 10 Clear   76 56     50%   76 29.48 29.46      
Apr 25 16:53 SSW 18 10 Clear CLR 78 55     45%   78 29.48 29.46      
Apr 25 14:53   10 Clear CLR 80 55     42%   80 29.51 29.48      
Apr 25 13:53 Calm 10 Clear CLR 78 53     42%   78 29.52 29.5      
Apr 25 12:53 S 14   Clear CLR 77 53     43%   76 29.55 29.52      
Apr 25 11:53 S 16 10 Clear CLR 75 52     45%   74 29.57 29.55      
Apr 25 09:53 S 11 10 Clear CLR 69 50     51%     29.62 29.6      
Apr 25 07:53 SSE 6 10 Clear CLR 57 45     64%     29.65 29.63      
Apr 25 06:53 SSE 6 10 Clear CLR 53 44     71%     29.64 29.62      
Apr 25 05:53 S 5 10 Clear CLR 52 43     71%     29.65 29.63      
Apr 25 04:53 SSE 5 10 Clear CLR 53 43     69%     29.66 29.64      
Apr 25 03:53 S 5 10 Clear CLR 53 43     69%     29.66 29.64      
Apr 25 02:53 SSE 6 10 Clear CLR 54 43     66%     29.67 29.65      
Apr 25 01:53 SSE 6 10 Clear CLR 54 42     64%     29.69 29.67      
Apr 25 00:53 SSE 3 10 Clear CLR 56 41     57%     29.72 29.7      
Apr 24 23:53 S 3 10 Clear CLR 56 40     55%     29.73 29.71      
Apr 24 22:53 S 6 10 Clear CLR 58 38     47%     29.72 29.7      
Apr 24 20:53 S 6 10 Clear CLR 61 35     38%     29.69 29.68      
Apr 24 19:53 SSE 5 10 Clear CLR 66 39     37%     29.7 29.69      
Apr 24 18:53 SSE 9 10 Clear CLR 72 37     28%   70 29.69 29.68      
Apr 24 17:53 SSE 5 10 Clear CLR 75 37     25%   73 29.72 29.71      
Apr 24 16:53 SW 6 10 Clear CLR 76 39     26%   74 29.75 29.73      
Apr 24 15:53 SE 7 10 Clear CLR 74 36     25%   72 29.76 29.75      
Apr 24 14:53 S 8 10 Clear CLR 74 33     22%   72 29.81 29.79      
Apr 24 13:53 SSW 7 10 Clear CLR 71 32     24%   69 29.85 29.84      
Apr 24 12:53 5 10 Clear CLR 69 31     24%     29.9 29.88      
Apr 24 11:53 5 10 Clear CLR 67 32     27%     29.94 29.93      
Apr 24 09:53 5 10 Clear CLR 58 44     60%     29.98 29.97      
Apr 24 08:53 3 10 Clear CLR 50 46     86% 49   29.98 29.98      
Apr 24 07:53 Calm 10 Clear CLR 46 44     93%     29.98 29.98      
Apr 24 06:53 N 3 10 Clear CLR 41 41     100% 39   29.97 29.96      
Apr 24 06:41 N 3 10 Partly Cloudy SCT001 41 40     96% 39   29.97        
Apr 24 06:28 Calm 3 Fog/Mist BKN001 41 40     96%     29.97        
Apr 24 06:20 Calm 1 Fog/Mist VV001 40 40     100%     29.96        
Apr 24 06:13 Calm 2 Fog/Mist BKN001 41 40     96%     29.96        
Apr 24 05:53 NW 3 10 Clear CLR 41 40     96% 39   29.95 29.94      
Apr 24 04:53 Calm 10 Clear CLR 42 39     89%     29.93 29.92      
Apr 24 03:53 Calm 10 Clear CLR 42 39     89%     29.93 29.92      
Apr 24 01:53 3 10 Clear CLR 50 35     56% 49   29.94 29.93      
Apr 24 00:53 ENE 5 10 Clear CLR 52 35     52%     29.95 29.94      
Apr 23 22:53 Calm 10 Clear CLR 52 36     54%     29.97 29.96      
Apr 23 21:53 Calm 10 Clear CLR 54 35     49%     30 29.99      
Apr 23 20:53 Calm 10 Clear CLR 55 38     52%     29.99 29.98      
Apr 23 19:53 Calm 10 Clear CLR 59 36     42%     29.99 29.98      
Apr 23 18:53 6 10 Clear CLR 68 29     23%     29.99 29.98      
Apr 23 17:53 7 10 Clear CLR 70        %     29.99 29.98      
Apr 23 16:53 6 10 Clear CLR 71        %     29.99 29.98      
Apr 23 15:53 NE 10 10 Clear CLR 70 31     23%     30 29.98      
Apr 23 14:53 5 10 Clear CLR 69 34     27%     30.01 29.99      
Apr 23 13:53 ENE 9 10 Clear CLR 67 34     29%     30.02 30      
Apr 23 12:53 NNE 8 10 Clear CLR 64 34     33%     30.03 30.02      
Apr 23 11:53 NNE 8 10 Clear CLR 62 35     36%     30.06 30.05      
Apr 23 10:53 NE 9 10 Clear CLR 59 37     44%     30.07 30.06      
Apr 23 09:53 NE 8 10 Clear CLR 56 37     49%     30.07 30.07      
Apr 23 08:53 7 10 Clear CLR 52 37     57%     30.07 30.07      
Apr 23 07:53 Calm 10 Clear CLR 48 37     66%     30.07 30.07      
Apr 23 06:53 3 10 Clear CLR 44 38     79% 43   30.06 30.06      
Apr 23 05:53 3 10 Clear CLR 44 40     85% 43   30.04 30.04      
Apr 23 04:53 3 10 Clear CLR 44 42     93% 43   30.03 30.03      
Apr 23 03:53 NNW 5 10 Mostly Cloudy BKN095 46 44     93% 44   30.03 30.03      
Apr 23 02:53 NNW 3 10 Mostly Cloudy BKN075 BKN100 46 44     93% 45   30.02 30.02      
Apr 23 01:53 Calm 10 Mostly Cloudy BKN070 46 45     96%     30.03 30.03      
Apr 22 23:53 N 3 10 Cloudy OVC049 47 45     93% 46   30.05 30.05 0    
Apr 22 22:53 Calm 10 Light Rain OVC046 47 45     93%     30.05 30.05 0    
Apr 22 21:53 Calm 10 Light Rain OVC044 47 44     90%     30.06 30.06 0 0  
Apr 22 20:53 3 6 Light Rain and Fog/Mist BKN036 BKN045 OVC050 46 45     96% 45   30.05 30.05 0    
Apr 22 19:53 Calm 10 Light Rain BKN032 OVC042 46 44     93%     30.05 30.05 0    
Apr 22 19:15 6 7 Light Rain SCT008 SCT015 OVC036 47 44     90% 44   30.04   0    
Apr 22 18:53 3 4 Light Rain and Fog/Mist BKN007 OVC014 47 45     93% 46   30.03 30.03 0   0
Apr 22 18:19 5 2 Light Rain and Fog/Mist BKN008 BKN012 OVC034 48 46     93% 46   30.02   0    
Apr 22 18:10 3 3 Light Rain and Fog/Mist BKN008 BKN012 OVC033 48 46     93% 47   30.02   0    
Apr 22 17:53 5 10 Cloudy FEW011 SCT025 OVC032 48 46     93% 46   30.02 30.02 0    
Apr 22 17:45 7 10 Cloudy SCT011 SCT017 OVC032 48 45     89% 45   30.01   0    
Apr 22 17:36 7 10 Cloudy FEW008 BKN012 OVC027 48 45     89% 45   30.01   0    
Apr 22 17:24 6 4 Light Rain and Fog/Mist SCT010 OVC019 48 46     93% 45   30.01   0    
Apr 22 17:07 NNE 6 10 Cloudy SCT010 BKN014 OVC031 49 46     90% 46   30        
Apr 22 17:00 3 10 Cloudy SCT008 BKN016 OVC031 49 46     90% 48   30        
Apr 22 16:53 6 10 Cloudy SCT006 BKN010 OVC031 49 46     90% 46   30 30 0    
Apr 22 16:23 5 5 Light Rain and Fog/Mist BKN007 BKN017 OVC024 49 47     93% 47   29.99   0    
Apr 22 16:14 6 2 Light Rain and Fog/Mist BKN007 BKN018 OVC025 48 46     93% 45   29.99   0    
Apr 22 15:53 7 3 Light Rain and Fog/Mist BKN007 BKN013 OVC021 49 46     90% 46   29.99 29.99 0 0  
Apr 22 15:17 3 2 Light Rain and Fog/Mist BKN006 BKN012 OVC016 49 47     93% 48   29.99   0    
Apr 22 15:02 3 2.5 Fog/Mist FEW006 OVC012 49 46     90% 48   29.99        
Apr 22 14:53 ENE 5 4 Fog/Mist OVC013 49 45     86% 47   30 29.99 0    
Apr 22 13:53 NE 5 10 Cloudy OVC014 49 44     83% 47   29.99 29.99      
Apr 22 12:53 6 10 Cloudy OVC012 48 43     83% 45   29.99 29.99     0
Apr 22 12:24 6 10 Cloudy OVC010 47 43     86% 44   30        
Apr 22 11:53 7 10 Cloudy OVC008 47 43     86% 44   29.99 29.99      
Apr 22 10:53 7 10 Cloudy OVC009 46 43     89% 42   29.98 29.98      
Apr 22 09:53 NNE 5 6 Fog/Mist OVC007 46 44     93% 44   29.97 29.97 0 0  
Apr 22 08:53 NE 5 10 Light Rain BKN009 OVC015 49 47     93% 47   29.95 29.94 0    
Apr 22 08:14 3 10 Cloudy OVC010 49 47     93% 48   29.94   0    
Apr 22 07:53 3 10 Light Rain BKN008 OVC024 49 47     93% 48   29.93 29.93 0    
Apr 22 06:53 3 10 Light Rain BKN007 OVC011 49 47     93% 48   29.92 29.92 0   0
Apr 22 06:15 5 10 Light Rain BKN007 BKN015 OVC022 48 47     96% 46   29.9   0    
Apr 22 06:05 3 7 Light Rain SCT005 BKN015 OVC022 48 47     96% 47   29.9   0    
Apr 22 05:53 ENE 5 7 Rain BKN006 BKN015 OVC021 48 47     96% 46   29.89 29.89 0    
Apr 22 05:41 ENE 6 9 Light Rain BKN006 BKN010 OVC015 48 47     96% 45   29.89   0    
Apr 22 05:17 N 3 10 Light Rain OVC004 49 47     93% 48   29.89   0    
Apr 22 04:53 Calm 10 Light Rain OVC004 49 47     93%     29.88 29.88 0    
Apr 22 03:53 Calm 10 Cloudy OVC005 49 47     93%     29.88 29.87      
Apr 22 02:53 SE 8 10 Cloudy OVC007 49 47     93% 45   29.87 29.86      
Apr 22 01:53 ESE 5 10 Cloudy OVC008 49 47     93% 47   29.86 29.85      
Apr 22 00:53 5 10 Cloudy OVC007 49 47     93% 47   29.9 29.9 0   1
Apr 22 00:44 E 7 10 Light Rain BKN006 BKN036 OVC075 49 47     93% 46   29.89   0    
Apr 22 00:29 SE 10 6 Rain and Fog/Mist FEW006 BKN048 OVC075 48 47     96% 43   29.85   0    
Apr 22 00:16   5 Thunderstorms and Heavy Rain and Fog/Mist OVC060 49 47     93%     29.9   0    
Apr 21 23:53 ESE 9 4 Heavy Rain and Fog/Mist OVC045 49 47     93% 45   29.94 29.93 0    
Apr 21 23:51 ESE 8 4 Heavy Rain and Fog/Mist FEW008 OVC043 48 46     93% 45   29.95   0    
Apr 21 23:38 E 8 3 Thunderstorms and Heavy Rain and Fog/Mist FEW006 SCT010 OVC032 49 47     93% 45   29.95   0    
Apr 21 23:31 ESE 9 2 Thunderstorms and Heavy Rain and Fog/Mist SCT007 BKN010 OVC020 49 47     93% 45   29.96   0    
Apr 21 23:24 Calm 2.5 Heavy Rain and Fog/Mist BKN007 OVC011 49 48     97%     29.96   0    
Apr 21 23:09 7 6 Thunderstorms and Heavy Rain and Fog/Mist BKN007 OVC010 49 49     100% 46   29.87   0    
Apr 21 22:00 ESE 9 10 Light Rain BKN007 OVC035 50 49     96% 46   29.91   0    
Apr 21 21:53 E 11 9 Light Rain BKN007 OVC037 50 49     96% 46   29.87 29.87 0 1  
Apr 21 21:47 E 13 6 Light Rain and Fog/Mist BKN007 OVC037 50 48     94% 45   29.86   0    
Apr 21 21:13 E 9 4 Rain and Fog/Mist BKN006 OVC036 50 50     100% 46   29.86   0    
Apr 21 20:53 ESE 7 4 Thunderstorms and Heavy Rain and Fog/Mist BKN006 OVC032 51 50     96%     29.91 29.91 0    
Apr 21 20:45 E 10 4 Thunderstorms and Heavy Rain and Fog/Mist SCT005 OVC034 51 50     96%     29.87   0    
Apr 21 20:23 ESE 10 7 Thunderstorms and Rain BKN005 BKN039 OVC085 52 51     97%     29.87   0    
Apr 21 19:53 ESE 10 8 Rain BKN007 BKN050 OVC075 52 51     97%     29.88 29.87 0    
Apr 21 19:29 E 8 10 Light Rain BKN008 OVC070 53 52     96%     29.89   0    
Apr 21 19:03 E 8 7 Rain OVC010 53 52     96%     29.9   0    
Apr 21 18:53 3 8 Light Rain OVC009 54 52     93%     29.93 29.92 0   1
Apr 21 17:53 6 10 Cloudy OVC009 54 53     97%     29.89 29.88 0    
Apr 21 17:14 SSE 10 10 Cloudy BKN007 BKN055 OVC095 54 53     97%     29.85   0    
Apr 21 16:53 ESE 9 10 Light Rain SCT007 BKN055 OVC100 53 52     96%     29.86   0    
Apr 21 15:53 ENE 8 9 Light Rain SCT006 SCT050 OVC070 54 52     93%     29.92 29.91 0 0  
Apr 21 15:50 ENE 8 8 Rain SCT005 BKN050 OVC065 54 52     94%     29.93   0    
Apr 21 15:32 NNE 8 5 Light Rain and Fog/Mist BKN005 BKN043 OVC060 53 52     96%     29.96   0    
Apr 21 15:28 N 6 5 Rain and Fog/Mist BKN004 BKN045 OVC055 53 52     96%     29.98   0    
Apr 21 15:19 5 3 Rain and Fog/Mist SCT004 BKN036 OVC055 53 52     96%     29.98   0    
Apr 21 15:14 NNE 5 2.5 Rain and Fog/Mist BKN004 OVC038 53 52     96%     30   0    
Apr 21 15:10 N 3 2.5 Heavy Rain and Fog/Mist SCT004 OVC038 53 53     100%     30.01   0    
Apr 21 14:58 3 1.5 Heavy Rain and Fog/Mist SCT004 OVC034 53 52     96%     30   0    
Apr 21 14:53 N 5 2 Thunderstorms and Heavy Rain and Fog/Mist BKN004 OVC034 53 52     96%     30 29.99 0    
Apr 21 14:31 7 2 Thunderstorms and Heavy Rain and Fog/Mist OVC004 54 53     97%     30.01   0    
Apr 21 14:06 ENE 6 10 Light Rain OVC005 54 53     97%     29.93   0    
Apr 21 13:53 ESE 8 10 Cloudy OVC005 54 53     97%     29.92 29.91      
Apr 21 12:53 ESE 6 10 Cloudy OVC006 54 53     97%     29.94 29.92 0   1
Apr 21 11:53 SSE 5 10 Rain OVC005 52 51     97%     29.95 29.94 0    
Apr 21 11:06 3 5 Rain and Fog/Mist BKN006 BKN065 OVC090 52 51     97%     29.97   0    
Apr 21 10:53 ESE 11 6 Rain and Fog/Mist SCT007 SCT065 OVC095 52 51     97%     29.95   0    
Apr 21 09:53 SE 6 7 Rain FEW007 FEW070 OVC095 52 51     97%     30.05 30.04 0 1  
Apr 21 09:35 E 7 7 Rain SCT007 SCT070 OVC090 51 50     96%     30.04   0    
Apr 21 09:12 ESE 3 8 Light Rain BKN006 BKN011 OVC075 52 51     97%     30.08   0    
Apr 21 09:02 Calm 5 Light Rain and Fog/Mist SCT006 BKN050 OVC070 52 51     97%     30.08   0    
Apr 21 08:53 ENE 5 3 Rain and Fog/Mist SCT060 OVC075 52 51     97%     30.06 30.05 0    
Apr 21 08:30 7 3 Rain and Fog/Mist FEW010 BKN036 OVC075 52 51     97%     30.08   0    
Apr 21 08:16 5 1 Heavy Rain and Fog/Mist FEW008 BKN032 OVC045 52 51     97%     30.08   0    
Apr 21 08:04 6 1.5 Heavy Rain and Fog/Mist FEW007 BKN024 OVC033 52 51     97%     30.09   0    
Apr 21 07:57 N 6 2.5 Heavy Rain and Fog/Mist FEW009 OVC033 52 51     97%     30.08   0    
Apr 21 07:53 N 7 4 Rain and Fog/Mist OVC033 52 51     97%     30.08 30.07 0    
Apr 21 06:53 ENE 6 10 Mostly Cloudy BKN037 BKN049 53 51     93%     30.03 30.01 0   0
Apr 21 05:53 NNE 6 8 Rain FEW019 OVC033 55 51     86%     30.04 30.02 0    
Apr 21 05:18 NE 8 10 Cloudy OVC030 57 51     81%     30.02        
Apr 21 04:53 6 10 Cloudy OVC026 58 51     78%     30.01 29.99 0    
Apr 21 03:53 E 7 10 Cloudy OVC022 59 53     81%     29.99 29.97      
Apr 21 02:53 3 10 Cloudy OVC018 61 57     87%     29.98 29.96      
Apr 21 02:46 5 10 Cloudy OVC016 62 57     84%     29.99        
Apr 21 01:53 Calm 10 Cloudy OVC014 64 61     90%     30 29.97      
Apr 21 01:43 ENE 3 10 Cloudy OVC014 64 61     90%     30        
Apr 21 01:09 Calm 10 Cloudy BKN016 BKN023 OVC031 64 61     90%     30.01        
Apr 21 00:53 Calm 10 Cloudy OVC031 64 62     93%     30.01 29.98      
Apr 20 23:53 Calm 10 Cloudy BKN033 OVC044 65 62     90%     30.02 30      
Apr 20 22:53 Calm 10 Cloudy OVC031 65 62     90%     30.03 30      
Apr 20 21:53 Calm 10 Cloudy BKN035 BKN075 OVC100 65 61     87%     30.02 30      
Apr 20 20:53 Calm 10 Cloudy BKN044 BKN055 OVC070 66 61     84%     30.01 29.99      
Apr 20 19:53 Calm 10 Cloudy SCT050 BKN065 OVC080 67 62     84%     30 29.97      
Apr 20 18:53 3 10 Partly Cloudy FEW070 SCT100 69 62     78%     29.99 29.96     0
Apr 20 17:53 5 10 Mostly Cloudy FEW018 BKN065 BKN095 70 64     81%     29.98 29.96      
Apr 20 16:53 5 10 Mostly Cloudy SCT050 BKN065 BKN095 72 66     82%   73 29.97 29.94 0    
Apr 20 15:53 N 3 10 Light Rain OVC043 72 66     82%   73 29.97 29.95 0 0  
Apr 19 15:53 SSW 13 10 Partly Cloudy SCT055 SCT070 82 59     46%   82 30.02 30      
Apr 19 14:53 SW 9 10 Mostly Cloudy SCT055 BKN065 81 58     45%   81 30.04 30.02      
Apr 19 13:53 WSW 10 10 Mostly Clear FEW055 81 57     44%   81 30.06 30.03      
Apr 19 12:53 SW 11 10 Mostly Clear FEW050 80 58     47%   80 30.08 30.06      
Apr 19 11:53 SW 7 10 Clear CLR 77 60     56%   77 30.09 30.07      
Apr 19 10:53 6 10 Clear CLR 74 63     69%   74 30.1 30.08      
Apr 19 09:53 S 7 10 Clear CLR 71 62     73%   71 30.1 30.08      
Apr 19 08:53 5 10 Clear CLR 67 63     87%     30.1 30.08      
Apr 19 07:53 SSE 3 8 Clear CLR 63 62     97%     30.1 30.08      
Apr 19 06:58 Calm 3 Fog/Mist CLR 57 57     100%     30.08        
Apr 19 06:53 Calm 1.75 Fog/Mist CLR 57 56     96%     30.08 30.06      
Apr 19 06:34 Calm 1.75 Fog/Mist CLR 57 57     100%     30.07        
Apr 19 05:53 SSE 3 8 Clear CLR 61 60     97%     30.07 30.04      
Apr 19 04:53 Calm 8 Clear CLR 61 60     97%     30.06 30.04      
Apr 19 03:53 S 5 10 Clear CLR 62 61     96%     30.05 30.03      
Apr 19 02:53 S 5 10 Clear CLR 62 60     93%     30.04 30.01      
Apr 19 01:53 S 5 10 Clear CLR 62 60     93%     30.05 30.03      
Apr 19 00:53 S 5 10 Clear CLR 63 60     90%     30.06 30.04      
Apr 18 22:53 SSW 6 10 Clear CLR 65 59     81%     30.06 30.03      
Apr 18 21:53 S 6 10 Clear CLR 67 60     79%     30.06 30.04      
Apr 18 20:53 SSE 5 10 Clear CLR 69 59     70%     30.04 30.02      
Apr 18 19:53 SSE 3 10 Clear CLR 71 60     68%   71 30.02 30      
Apr 18 18:53 SSE 5 10 Clear CLR 75 60     60%   75 30.01 29.99      
Apr 18 17:53 6 10 Clear CLR 77 60     56%   77 30.01 29.99      
Apr 18 16:53 6 10 Clear CLR 76 60     58%   76 30.02 30      
Apr 18 15:53 SSW 7 10 Mostly Clear FEW036 75 60     60%   75 30.04 30.01      
Apr 18 14:53 5 10 Partly Cloudy SCT032 73 61     66%   73 30.06 30.05      
Apr 18 13:53 5 10 Cloudy FEW022 OVC032 71 60     68%   71 30.07 30.05      
Apr 18 13:49 SSE 8 10 Cloudy FEW024 OVC032 70 61     73%     30.07        
Apr 18 13:42 S 8 10 Cloudy BKN026 OVC032 72 61     68%   72 30.07        
Apr 18 13:34 S 9 10 Cloudy SCT023 OVC030 70 60     71%     30.08        
Apr 18 12:53 SSE 6 10 Cloudy BKN020 OVC026 68 60     76%     30.09 30.07      
Apr 18 12:04 WSW 6 10 Cloudy OVC016 66 59     78%     30.09        
Apr 18 11:53 SW 6 10 Cloudy OVC014 66 60     81%     30.09 30.08      
Apr 18 11:20 3 10 Cloudy OVC010 64 59     84%     30.09        
Apr 18 10:53 3 10 Cloudy OVC009 64 59     84%     30.09 30.08      
Apr 18 09:53 SSW 5 9 Cloudy OVC005 61 58     90%     30.09 30.08      
Apr 18 08:53 S 3 9 Cloudy OVC005 60 58     93%     30.09 30.08      
Apr 18 08:36 SE 5 8 Cloudy OVC004 60 58     93%     30.09        
Apr 18 08:11 Calm 6 Fog/Mist OVC003 59 58     96%     30.1        
Apr 18 07:50 3 3 Fog/Mist OVC002 57 57     100%     30.09        
Apr 18 07:38 SSE 3 1.5 Fog/Mist OVC002 58 57     97%     30.1        
Apr 18 07:28 Calm 1.5 Fog/Mist OVC003 58 57     97%     30.1        
Apr 18 07:20 SSE 3 1.75 Fog/Mist OVC004 58 57     97%     30.1        
Apr 18 06:53 Calm 7 Cloudy OVC004 58 57     97%     30.09 30.08      
Apr 18 06:29 Calm 8 Cloudy OVC004 58 57     97%     30.09        
Apr 18 05:53 SE 3 9 Cloudy OVC005 58 57     97%     30.08 30.07      
Apr 18 04:53 ESE 3 10 Cloudy OVC006 58 57     97%     30.07 30.05      
Apr 18 03:53 E 3 10 Cloudy OVC006 58 57     97%     30.06 30.05      
Apr 18 02:53 E 3 10 Cloudy OVC006 58 57     97%     30.07 30.05      
Apr 18 01:53 E 6 10 Cloudy OVC006 59 57     93%     30.07 30.06      
Apr 18 00:53 E 6 10 Cloudy OVC005 59 57     93%     30.08 30.06      
Apr 17 23:53 E 7 10 Clear   60 58     93%     30.1 30.08      
Apr 17 23:19 E 6 10 Cloudy OVC008 60 58     93%     30.1        
Apr 17 22:53 ESE 5 10 Cloudy OVC012 61 57     87%     30.1 30.08      
Apr 17 21:53 ESE 6 10 Cloudy OVC014 62 58     86%     30.09 30.07      
Apr 17 20:53 E 7 10 Cloudy BKN015 OVC020 62 58     86%     30.07 30.05      
Apr 17 20:41 E 6 10 Cloudy BKN015 BKN020 OVC040 62 58     86%     30.06        
Apr 17 19:53 E 5 10 Cloudy OVC034 63 59     87%     30.05 30.03      
Apr 17 19:09 E 8 10 Cloudy SCT026 OVC032 64 59     84%     30.04        
Apr 17 18:53 E 7 10 Cloudy BKN025 OVC031 65 59     81%     30.04 30.02     0
Apr 17 18:49 E 9 10 Cloudy BKN025 OVC031 64 59     83%     30.04        
Apr 17 18:19 E 7 10 Mostly Cloudy SCT027 BKN049 66 59     78%     30.04        
Apr 17 17:53 ESE 8 10 Cloudy OVC025 67 60     79%     30.03 30.01      
Apr 17 17:01 ENE 7 10 Mostly Cloudy SCT015 BKN020 66 60     81%     30.01        
Apr 17 16:53 E 9 10 Partly Cloudy SCT015 SCT020 67 61     81%     30.01 30      
Apr 17 16:28 ENE 11 10 Partly Cloudy FEW014 SCT021 67 60     79%     30.01        
Apr 17 16:21 ENE 10 10 Mostly Cloudy SCT014 BKN021 67 60     79%     30.01        
Apr 17 15:53 E 10 10 Mostly Cloudy BKN014 BKN019 68 62     81%     30.02 30.01   0  
Apr 17 15:38 ENE 9 10 Mostly Cloudy BKN012 68 62     81%     30.03        
Apr 17 15:31 7 10 Mostly Cloudy SCT012 BKN017 BKN036 68 62     81%     30.04        
Apr 17 15:21 E 5 10 Mostly Cloudy FEW012 SCT027 BKN036 69 62     78%     30.04        
Apr 17 14:53 E 8 10 Cloudy FEW011 SCT014 OVC027 67 61     81%     30.06 30.04      
Apr 17 14:35 E 8 10 Cloudy FEW009 BKN016 OVC025 67 62     84%     30.07        
Apr 17 14:20 E 7 10 Cloudy FEW010 BKN016 OVC025 67 62     84%     30.07        
Apr 17 13:53 ENE 7 10 Cloudy FEW008 OVC012 66 62     87%     30.08 30.06 0    
Apr 17 13:37 E 6 10 Cloudy SCT007 OVC014 65 62     90%     30.08   0    
Apr 17 13:26 E 5 10 Cloudy SCT007 OVC015 65 62     90%     30.08   0    
Apr 17 13:10 E 6 10 Cloudy SCT008 OVC014 64 62     93%     30.09   0    
Apr 17 12:53 E 7 6 Light Rain and Fog/Mist OVC010 65 62     90%     30.09 30.07 0   0
Apr 17 11:53 ESE 6 10 Cloudy OVC010 64 61     90%     30.1 30.09 0    
Apr 17 11:45 ESE 6 10 Cloudy BKN008 OVC011 64 61     90%     30.1   0    
Apr 17 11:24 E 7 10 Cloudy SCT008 OVC013 64 62     93%     30.1   0    
Apr 17 11:07 E 8 10 Cloudy FEW006 BKN015 OVC029 64 62     93%     30.1   0    
Apr 17 10:53 E 5 10 Light Rain BKN009 BKN070 OVC085 63 61     93%     30.09 30.08 0    
Apr 17 10:43 5 10 Light Rain BKN009 BKN028 OVC085 64 62     93%     30.09   0    
Apr 17 10:33 7 10 Light Rain FEW009 BKN070 OVC100 64 62     93%     30.09   0    
Apr 17 10:23 E 8 10 Rain FEW010 BKN029 OVC095 63 61     93%     30.08   0    
Apr 17 10:16 E 6 10 Light Rain FEW010 BKN033 OVC100 63 61     93%     30.08   0    
Apr 17 10:01 E 6 10 Cloudy BKN010 OVC023 63 60     90%     30.09        
Apr 17 09:53 Calm 10 Cloudy BKN008 OVC022 63 61     93%     30.09 30.08      
Apr 17 09:05 NNW 3 10 Cloudy OVC005 61 60     97%     30.09        
Apr 17 08:41 N 3 10 Cloudy FEW004 BKN017 OVC023 61 60     97%     30.08        
Apr 17 08:19 E 5 10 Mostly Cloudy BKN022 61 60     97%     30.06        
Apr 17 07:53 E 5 10 Mostly Clear FEW029 61 60     97%     30.04 30.03      
Apr 17 07:43 E 5 10 Mostly Clear FEW029 61 60     97%     30.03        
Apr 17 07:16 E 5 10 Mostly Cloudy SCT004 BKN028 60 60     100%     30.03        
Apr 17 06:53 E 7 10 Cloudy BKN004 BKN032 OVC039 60 59     96%     30.04 30.02 0   1
Apr 17 06:41 E 7 10 Mostly Cloudy BKN004 BKN032 60 59     96%     30.03   0    
Apr 17 06:13 3 10 Cloudy SCT006 OVC030 61 60     97%     30.05   0    
Apr 17 06:05 Calm 10 Cloudy BKN006 OVC030 61 61     100%     30.05   0    
Apr 17 05:53 N 6 10 Cloudy FEW006 BKN030 OVC095 61 61     100%     30.05 30.03 0    
Apr 17 05:04 E 8 3 Rain and Fog/Mist FEW006 BKN033 OVC070 61 61     100%     30.05   0    
Apr 17 04:59 6 2 Heavy Rain and Fog/Mist FEW003 FEW010 OVC026 61 61     100%     30.06   0    
Apr 17 04:53 6 1.25 Heavy Rain and Fog/Mist FEW003 BKN014 OVC028 61 61     100%     30.08 30.06 1    
Apr 17 04:47 Calm 0.75 Heavy Rain and Fog/Mist FEW003 BKN012 OVC024 61 61     100%     30.08   1    
Apr 17 04:28 W 8 1.75 Clear   62 61     96%     30.07   0    
Apr 17 04:20 NNW 6 5 Clear   62 61     96%     30.05   0    
Apr 17 03:53 E 5 10 Clear   63 61     93%     30.04 30.02 0 0  
Apr 17 02:53 ESE 3 10 Cloudy BKN043 BKN090 OVC100 64 61     90%     30.03 30.01      
Apr 17 01:53 SSE 3 10 Mostly Clear FEW043 62 60     93%     30.05 30.03      
Apr 17 00:53 SE 5 10 Clear CLR 63 60     90%     30.03 30.01      
Apr 16 23:53 SE 3 10 Cloudy BKN040 OVC090 64 61     90%     30.06 30.04      
Apr 16 22:53 E 3 10 Cloudy BKN050 OVC060 64 61     90%     30.08 30.06      
Apr 16 21:53 SW 3 10 Cloudy OVC060 65 60     84%     30.08 30.06      
Apr 16 20:53 Calm 10 Cloudy BKN055 BKN070 OVC085 64 60     87%     30.08 30.05      
Apr 16 19:53 Calm 10 Cloudy BKN060 OVC075 65 61     87%     30.07 30.05      
Apr 16 18:53 Calm 10 Cloudy OVC055 68 60     76%     30.07 30.05     0
Apr 16 17:53 Calm 10 Mostly Cloudy BKN040 70 58     66%     30.06 30.04      
Apr 16 16:53 Calm 10 Mostly Clear FEW021 69 60     73%     30.05 30.03      
Apr 16 15:53 N 3 10 Mostly Clear FEW019 68 60     76%     30.04 30.02   0  
Apr 16 15:06 3 10 Partly Cloudy SCT015 68 60     76%     30.04        
Apr 16 14:53 NE 3 10 Mostly Cloudy SCT011 BKN016 68 61     78%     30.04 30.02      
Apr 16 14:15 3 10 Mostly Cloudy BKN009 BKN014 65 62     90%     30.06        
Apr 16 14:12 Calm 10 Mostly Cloudy BKN011 BKN017 65 62     90%     30.06        
Apr 16 13:53 N 3 10 Mostly Cloudy BKN009 BKN014 65 62     90%     30.06 30.04 0    
Apr 16 13:31 S 6 10 Mostly Cloudy BKN008 63 61     93%     30.04   0    
Apr 16 13:15 Calm 10 Light Rain FEW006 BKN095 62 61     96%     30.07   0    
Apr 16 12:53 S 16 10 Light Rain OVC100 61 60     97%     30.04 30.03 0   1
Apr 16 11:53 SW 3 5 Light Rain and Fog/Mist FEW060 SCT070 OVC100 62 61     96%     30.12 30.1 0    
Apr 16 11:50 SW 5 4 Light Rain and Fog/Mist SCT060 BKN075 OVC095 63 61     94%     30.12   0    
Apr 16 11:39 WSW 3 2.5 Rain and Fog/Mist SCT049 BKN065 OVC075 62 61     96%     30.12   0    
Apr 16 10:56 6 1.5 Heavy Rain and Fog/Mist SCT017 SCT031 OVC047 63 61     93%     30.12   0    
Apr 09 00:53 SSW 8 10 Clear CLR 66 47     50%     29.84 29.81      
Apr 08 23:53 SSW 9 10 Clear CLR 67 46     47%     29.84 29.82      
Apr 08 22:53 SSW 8 10 Clear CLR 67 45     45%     29.86 29.83      
Apr 08 21:53 SSW 7 10 Clear CLR 67 42     40%     29.86 29.84      
Apr 08 20:53 SSW 8 10 Clear CLR 68 40     36%     29.84 29.83      
Apr 08 19:53 SSW 10 10 Clear CLR 71        %     29.83 29.82      
Apr 08 18:53 SSW 10 10 Clear CLR 73 43     34%   72 29.84 29.83      
Apr 08 17:53 SSW 16 10 Clear CLR 75 40     28%   74 29.84 29.83      
Apr 08 16:53 SSW 10 10 Clear CLR 79 44     29%   78 29.85 29.83      
Apr 08 15:53 SSW 15 10 Clear CLR 77 43     30%   76 29.87 29.85      
Apr 08 14:53 SSW 14 10 Clear CLR 78 44     30%   77 29.9 29.88      
Apr 08 13:53 SSW 13 10 Clear CLR 76 44     32%   75 29.93 29.92      
Apr 08 12:53 SW 15 10 Clear CLR 75 42     31%   74 29.96 29.94      
Apr 08 11:53 SSW 11 10 Clear CLR 73        %     29.99 29.97      
Apr 08 10:53 SW 13 10 Clear CLR 70 39     32%     30.01 29.99      
Apr 08 09:53 SSW 13 10 Clear CLR 64 40     41%     30.02 30.01      
Apr 08 08:53 SSW 8 10 Clear CLR 57 39     51%     30.03 30.02      
Apr 08 07:53 S 8 10 Clear CLR 51 36     56%     30.03 30.02      
Apr 08 06:53 S 5 10 Clear CLR 47 34     60% 45   30.03 30.02      
Apr 08 05:53 S 7 10 Clear CLR 46 33     60% 42   30.02 30.02      
Apr 08 04:53 S 6 10 Clear CLR 47 32     56% 44   30.02 30.01      
Apr 08 03:53 SSE 5 10 Clear CLR 49 30     48% 47   30.02 30.01      
Apr 08 02:53 S 5 10 Clear CLR 50 30     46% 48   30.03 30.02      
Apr 08 01:53 S 6 10 Clear CLR 50 31     48% 48   30.05 30.04      
Apr 08 00:53 S 6 10 Clear CLR 50 31     48% 48   30.06 30.05      
Apr 07 23:53 S 5 10 Clear CLR 51 28     41%     30.06 30.05      
Apr 07 22:53 S 3 10 Clear CLR 54 26     34%     30.07 30.06      
Apr 07 21:53 S 3 10 Clear CLR 56 24     29%     30.07 30.06      
Apr 07 20:53 SSE 3 10 Clear CLR 55 27     34%     30.08 30.07      
Apr 07 19:53 Calm 10 Clear CLR 57 27     31%     30.08 30.08      
Apr 07 18:53 Calm 10 Clear CLR 63 27     25%     30.09 30.09      
Apr 07 17:53 3 10 Clear CLR 66 23     19%     30.1 30.09      
Apr 07 16:53 3 10 Clear CLR 65        %     30.11 30.1      
Apr 07 15:53 NNW 5 10 Clear CLR 64 27     24%     30.13 30.13      
Apr 07 14:53   10 Clear CLR 64 28     26%     30.17 30.17      
Apr 07 13:53 W 8 10 Clear CLR 61 27     27%     30.2 30.2      
Apr 07 12:53 7 10 Clear CLR 59 27     29%     30.23 30.23      
Apr 07 11:53 NW 8 10 Clear CLR 57 28     33%     30.25 30.25      
Apr 07 10:53 7 10 Clear CLR 56 31     38%     30.26 30.25      
Apr 07 09:53 W 5 10 Clear CLR 53 33     46%     30.25 30.24      
Apr 07 08:53 3 10 Clear CLR 50 34     54% 49   30.23 30.23      
Apr 07 07:53 N 3 10 Clear CLR 43 34     70% 41   30.23 30.23      
Apr 07 06:53 Calm 10 Clear CLR 37 33     85%     30.23 30.23      
Apr 07 05:53 Calm 10 Clear CLR 37 33     85%     30.21 30.21      
Apr 07 04:53 NW 3 10 Clear CLR 39 32     76% 37   30.21 30.21      
Apr 07 03:53 Calm 10 Clear CLR 40 33     76%     30.2 30.2      
Apr 07 02:53 NNW 3 10 Clear CLR 41 33     73% 39   30.2 30.2      
Apr 07 01:53 N 3 10 Clear CLR 43 33     68% 41   30.2 30.2      
Apr 07 00:53 Calm 10 Clear CLR 44 31     60%     30.2 30.19      
Apr 06 23:53 N 3 10 Clear CLR 47 30     52% 46   30.18 30.18      
Apr 06 22:53 Calm 10 Clear CLR 48 30     50%     30.17 30.17      
Apr 06 21:53 N 3 10 Clear CLR 51 29     42%     30.16 30.16      
Apr 06 20:53 N 6 10 Clear CLR 53 28     38%     30.14 30.14      
Apr 06 19:53 NNW 8 10 Clear CLR 55 26     32%     30.12 30.12      
Apr 06 18:53 N 13 10 Mostly Clear FEW090 59 24     26%     30.11 30.11      
Apr 06 17:53 NNW 8 10 Mostly Cloudy BKN090 61 25     25%     30.1 30.1      
Apr 06 16:53 N 11 10 Mostly Clear FEW100 61 27     27%     30.1 30.09      
Apr 06 15:53 7 10 Partly Cloudy SCT085 59 28     31%     30.1 30.1      
Apr 06 14:53 NNW 8 10 Clear CLR 60 30     32%     30.11 30.1      
Apr 06 13:53 N 13 10 Mostly Cloudy BKN065 BKN080 57 31     37%     30.12 30.12      
Apr 06 12:53 NNW 11 10 Mostly Cloudy BKN070 61 35     38%     30.12 30.11      
Apr 06 11:53 N 10 10 Mostly Cloudy BKN055 BKN070 58 34     40%     30.12 30.11      
Apr 06 10:53 N 11 10 Partly Cloudy SCT047 56 36     47%     30.12 30.12      
Apr 06 09:53 N 10 10 Clear CLR 53 35     50%     30.1 30.1      
Apr 06 08:53 N 11 10 Clear CLR 49 36     61% 44   30.09 30.09      
Apr 06 07:53 7 10 Clear CLR 45 35     68% 41   30.07 30.07      
Apr 06 05:53 6 10 Clear CLR 43 34     70% 39   30.01 30.01      
Apr 06 04:53 N 7 10 Clear CLR 44 33     65% 40   29.99 29.98      
Apr 06 03:53 7 10 Clear CLR 44 35     70% 40   29.97 29.97      
Apr 06 01:53 6 10 Clear CLR 44 35     70% 41   29.97 29.97      
Apr 06 00:53 NNW 10 10 Mostly Clear FEW034 45 35     68% 40   29.97 29.97      
Apr 05 23:53 N 10 10 Mostly Clear FEW031 46 36     68% 41   29.94 29.94      
Apr 05 23:07 N 8 10 Partly Cloudy SCT029 SCT046 46 39     76% 42   29.93        
Apr 05 22:53 5 10 Cloudy BKN029 BKN035 OVC048 46 39     76% 44   29.93 29.92      
Apr 05 22:50 7 10 Mostly Cloudy BKN029 BKN048 46 39     76% 43   29.93        
Apr 05 21:53 NNW 9 10 Mostly Cloudy FEW028 BKN046 47 38     71% 43   29.91 29.91      
Apr 05 20:53 NNW 9 10 Cloudy SCT044 OVC055 48 39     71% 44   29.88 29.87      
Apr 05 19:53 NNW 9 10 Mostly Cloudy FEW029 SCT041 BKN050 47 39     74% 43   29.85 29.84      
Apr 05 17:53 N 15 10 Mostly Cloudy BKN034 BKN044 BKN075 49 37     63% 43   29.8 29.79 0    
Apr 05 16:53 NNW 14 10 Light Rain FEW024 BKN031 OVC043 48 39     71% 42   29.76 29.75 0    
Apr 05 16:50 NNW 9 10 Cloudy FEW024 BKN031 OVC046 48 39     71% 44   29.75   0    
Apr 05 16:34 NW 17 10 Light Rain SCT024 BKN029 OVC060 48 39     71% 42   29.74   0    
Apr 05 15:33 NNW 14 10 Clear   49 40     71% 44   29.72        
Apr 05 14:53 NNW 13 10 Clear   49 41     74% 44   29.7 29.69 0    
Apr 05 13:53 NNW 8 10 Cloudy BKN021 OVC026 50 42     74% 47   29.67 29.66      
Apr 05 13:39 NNW 11 10 Cloudy BKN021 OVC026 50 43     77% 46   29.66        
Apr 05 12:53 NW 10 10 Cloudy BKN014 BKN020 OVC026 49 46     90% 45   29.63 29.62 0   0
Apr 05 12:37 WNW 11 3 Light Rain and Fog/Mist FEW007 BKN012 OVC017 50 47     89% 46   29.62   0    
Apr 05 11:22 W 11 10 Cloudy BKN025 OVC032 53 45     74%     29.61        
Apr 05 10:53 W 8 10 Cloudy OVC030 55 45     69%     29.6 29.59      
Apr 05 09:53 W 8 10 Mostly Clear FEW030 55 44     66%     29.6 29.58      
Apr 05 09:45 W 9 10 Partly Cloudy SCT028 54 44     69%     29.59        
Apr 05 09:38 W 8 10 Mostly Cloudy BKN028 54 43     66%     29.6        
Apr 05 08:53 W 8 10 Cloudy FEW033 SCT042 OVC055 54 46     74%     29.6 29.58      
Apr 05 08:20 W 10 10 Mostly Cloudy FEW020 SCT026 BKN032 54 50     86%     29.6        
Apr 05 07:53 WSW 6 10 Mostly Cloudy BKN025 54 50     86%     29.59 29.57      
Apr 05 07:45 WSW 7 10 Mostly Cloudy BKN025 54 51     90%     29.59        
Apr 05 05:53 WSW 7 10 Clear CLR 54 50     86%     29.55 29.53      
Apr 05 04:53 SSW 5 10 Clear   53 51     93%     29.54 29.52      
Apr 05 02:53 S 9 10 Partly Cloudy FEW080 SCT100 54 52     93%     29.57   0    
Apr 05 01:53 S 5 10 Light Rain FEW060 BKN075 OVC090 54 53     97%     29.65 29.63      
Apr 05 01:18 SSW 7 7 Rain OVC075 55 52     89%     29.7        
Apr 05 01:03 WSW 6 7 Thunderstorms and Rain OVC075 55 52     89%     29.7        
Apr 05 00:43 Calm 6 Light Rain and Fog/Mist BKN070 OVC085 55 53     93%     29.7        
Apr 05 00:26 7 5 Thunderstorms and Rain and Fog/Mist OVC080 55 53     93%     29.69        
Apr 05 00:11 Calm 6 Rain and Fog/Mist OVC080 54 53     97%     29.69        
Apr 04 23:53 SSW 7 7 Thunderstorms and Rain FEW070 OVC085 55 54     96%     29.7 29.68      
Apr 04 23:43 5 7 Light Rain BKN075 OVC085 56 53     90%     29.68        
Apr 04 23:24 6 5 Thunderstorms and Rain and Fog/Mist SCT038 SCT055 OVC075 56 52     87%     29.67        
Apr 04 23:17 WNW 5 2.5 Thunderstorms and Heavy Rain SCT030 BKN055 OVC075 58 52     81%     29.67        
Apr 04 23:10 WSW 11 2 Heavy Rain and Fog/Mist BKN030 BKN043 OVC055 56 53     90%     29.7        
Apr 04 22:53 W 8 2.5 Thunderstorms and Heavy Rain and Fog/Mist FEW024 BKN045 OVC055 57 54     89%     29.67 29.66      
Apr 04 22:50 7 4 Heavy Rain and Fog/Mist BKN043 OVC055 57 54     88%     29.66        
Apr 04 22:25 WNW 13 10 Thunderstorms and Rain FEW043 BKN090 OVC110 66 54     65%     29.65   0    
Apr 04 22:11 S 10 10 Light Rain BKN100 BKN120 70 55     59%     29.59   0    
Apr 04 21:53 SSE 10 10 Clear CLR 71 54     55%   70 29.59 29.57      
Apr 04 20:53 SSE 10 10 Mostly Cloudy BKN075 71 53     53%   70 29.59 29.57      
Apr 04 19:53 SSE 15 10 Cloudy OVC070 73 51     46%   72 29.6 29.58      
Apr 04 18:53 S 11 10 Mostly Clear FEW075 75 49     40%   74 29.62 29.59     0
Apr 04 17:53 S 11 10 Cloudy OVC075 78 49     36%   77 29.62 29.61      
Apr 04 16:53 7 10 Clear CLR 79 49     35%   78 29.64 29.62      
Apr 04 15:53 ESE 9 10 Clear CLR 77 51     40%   76 29.66 29.64   0  
Apr 04 14:53 7 10 Clear CLR 75 50     41%   74 29.7 29.68 0    
Apr 04 13:53 NNW 6 10 Mostly Cloudy BKN095 71 48     44%   70 29.77 29.75      
Apr 04 12:53 ESE 6 10 Clear CLR 73 48     41%   72 29.77 29.75      
Apr 04 11:53 3 10 Mostly Clear FEW095 69 50     51%     29.79 29.77      
Apr 04 10:53 SW 5 10 Clear CLR 67 52     59%     29.8 29.78      
Apr 04 08:53 Calm 10 Clear CLR 57 52     83%     29.79 29.77      
Apr 04 07:53 Calm 10 Clear CLR 51 50     96%     29.78 29.77      
Apr 04 05:53 Calm 10 Clear CLR 48 46     93%     29.74 29.72      
Apr 04 04:53 W 3 10 Clear CLR 53 49     86%     29.72 29.71      
Apr 04 02:53 SSW 3 10 Clear CLR 51 49     92%     29.72 29.7      
Apr 04 01:53 Calm 10 Clear CLR 53 50     89%     29.72 29.71      
Apr 03 23:53 Calm 10 Clear CLR 58 51     78%     29.71 29.69      
Apr 03 22:53 Calm 10 Clear CLR 59 51     75%     29.68 29.67      
Apr 03 21:53 Calm 10 Clear CLR 60 51     72%     29.68 29.66      
Apr 03 20:53 Calm 10 Clear CLR 61 51     70%     29.65 29.63      
Apr 03 19:53 NNW 3 10 Cloudy OVC065 63 51     65%     29.62 29.6      
Apr 03 17:53 NW 9 10 Mostly Cloudy FEW038 BKN060 65 50     58%     29.55 29.54      
Apr 03 14:53 W 11 10 Clear   64 52     65%     29.5 29.48      
Apr 03 13:53 W 9 7 Rain SCT044 SCT055 OVC070 59 55     87%     29.5 29.49      
Apr 03 12:53 W 6 10 Mostly Cloudy SCT030 BKN036 66 54     65%     29.49 29.48 0   0
Apr 03 12:15 WSW 6 10 Mostly Cloudy SCT030 BKN041 BKN090 64 57     78%     29.5   0    
Apr 03 11:53 WSW 9 10 Thunderstorms and Rain FEW030 BKN070 OVC110 63 55     75%     29.51 29.49 0    
Apr 03 11:38 WSW 8 10 Mostly Cloudy FEW028 SCT041 BKN070 64 55     73%     29.51        
Apr 03 10:53 SW 8 10 Cloudy FEW021 BKN046 OVC055 63 58     84%     29.52 29.51 0    
Apr 03 10:39 WSW 3 10 Clear   62 58     86%     29.52   0    
Apr 03 09:53 SW 7 10 Clear   61 58     90%     29.52 29.5      
Apr 03 09:50 SW 9 10 Clear   61 57     88%     29.52        
Apr 03 08:53 SSW 7 10 Mostly Cloudy FEW029 BKN037 59 58     96%     29.52 29.51      
Apr 03 08:20 SW 7 10 Cloudy SCT018 SCT026 OVC033 58 57     97%     29.51        
Apr 03 07:53 SSW 3 10 Cloudy BKN021 OVC031 57 57     100%     29.51 29.49      
Apr 03 07:02 S 3 10 Cloudy SCT004 OVC018 57 56     96%     29.51        
Apr 03 06:48 ESE 3 10 Cloudy BKN004 OVC018 55 55     100%     29.5        
Apr 03 06:25 Calm 9 Cloudy OVC003 56 56     100%     29.51        
Apr 03 05:53 SSE 3 7 Cloudy OVC002 56 56     100%     29.52 29.5 0    
Apr 03 05:26 S 3 4 Light Rain and Fog/Mist OVC002 56 56     100%     29.52   0    
Apr 03 04:53 SSE 3 4 Light Rain and Fog/Mist OVC003 56 56     100%     29.53 29.52 0    
Apr 03 03:53 ESE 5 5 Fog/Mist OVC003 55 55     100%     29.55 29.53 0 0  
Apr 03 03:37 ESE 5 4 Fog/Mist OVC003 55 55     100%     29.55   0    
Apr 03 03:05 ESE 6 6 Light Rain and Fog/Mist OVC004 55 55     100%     29.58   0    
Apr 03 02:53 ESE 5 6 Fog/Mist OVC005 55 54     96%     29.58 29.56      
Apr 03 02:13 ESE 6 9 Cloudy OVC009 55 54     96%     29.6        
Apr 03 01:53 E 7 10 Cloudy OVC012 55 54     96%     29.6 29.58      
Apr 03 01:30 ESE 7 10 Cloudy OVC014 56 54     93%     29.62        
Apr 03 01:00 E 7 10 Cloudy OVC018 56 53     90%     29.64        
Apr 03 00:53 E 7 10 Clear   56 54     93%     29.65 29.63      
Apr 02 23:53 E 6 10 Cloudy OVC014 56 54     93%     29.69 29.67      
Apr 02 23:48 E 6 10 Cloudy OVC014 55 54     94%     29.69        
Apr 02 22:53 ESE 6 10 Cloudy OVC017 57 54     89%     29.73 29.72      
Apr 02 20:53 E 8 10 Partly Cloudy SCT040 57 55     93%     29.69 29.68      
Apr 02 19:53 E 6 10 Mostly Cloudy SCT035 BKN044 57 55     93%     29.71 29.7      
Apr 02 17:53 SSE 5 8 Light Rain OVC090 59 56     90%     29.82 29.81      
Apr 02 16:53 S 9 10 Light Rain OVC110 65 51     61%     29.83 29.82 0    
Apr 02 15:53 SSE 9 10 Mostly Clear FEW110 68 50     53%     29.84 29.83      
Apr 02 14:53 S 9 10 Clear CLR 70 50     49%     29.86 29.85      
Apr 02 13:53 SSE 11 10 Clear CLR 71 49     45%   70 29.87 29.86      
Apr 02 12:53 SE 9 10 Clear CLR 71 49     45%   70 29.92 29.9      
Apr 02 11:53 ESE 10 10 Clear CLR 66 48     52%     29.95 29.93      
Apr 02 10:53 SSE 9 10 Clear CLR 62 48     60%     29.99 29.98      
Apr 02 09:53 S 7 10 Clear CLR 57 46     67%     30.02 30.01      
Apr 02 08:53 ESE 7 10 Clear CLR 53 45     74%     30.04 30.03      
Apr 02 07:53 SE 7 10 Clear CLR 50 44     80% 47   30.06 30.06      
Apr 02 06:53 S 5 10 Mostly Clear FEW060 49 44     83% 47   30.07 30.06      
Apr 02 05:53 SSE 6 10 Mostly Cloudy BKN060 BKN075 50 44     80% 48   30.06 30.05      
Apr 02 04:53 SE 6 10 Clear CLR 50 44     80% 48   30.04 30.03      
Apr 02 03:53 SE 7 10 Clear CLR 50 44     80% 47   30.05 30.04      
Apr 02 02:53 E 3 10 Mostly Clear FEW070 50 44     80% 49   30.06 30.05      
Apr 02 01:53 SE 6 10 Clear CLR 50 44     80% 48   30.08 30.08      
Apr 02 00:53 SE 7 10 Clear CLR 51 45     79%     30.09 30.08      
Apr 01 23:53 SE 8 10 Clear CLR 53 45     74%     30.1 30.1      
Apr 01 22:53 SSE 8 10 Clear CLR 54 47     77%     30.11 30.11      
Apr 01 20:53 SE 9 10 Clear CLR 58 47     67%     30.09 30.08      
Apr 01 19:53 SE 7 10 Clear CLR 60 48     64%     30.06 30.06      
Apr 01 18:53 SE 8 10 Clear CLR 63 49     60%     30.05 30.05      
Apr 01 17:53 SE 8 10 Clear CLR 66 49     54%     30.06 30.05      
Apr 01 16:53 SSE 10 10 Clear   66 48     52%     30.06 30.05      
Apr 01 15:53 SE 9 10 Clear CLR 65 48     54%     30.07 30.06      
Apr 01 14:53 SSE 6 10 Clear CLR 63 47     56%     30.11 30.1      
Apr 01 12:53 SE 8 10 Partly Cloudy SCT019 56 46     69%     30.15 30.14      
Apr 01 11:53 SSE 8 10 Cloudy OVC016 52 44     74%     30.17 30.16      
Apr 01 11:31 6 10 Cloudy OVC015 52 44     74%     30.17        
Apr 01 10:53 SE 9 10 Cloudy OVC013 50 43     77% 46   30.18 30.18      
Apr 01 09:53 ESE 7 10 Cloudy OVC011 48 43     83% 45   30.17 30.17      
Apr 01 08:53 ESE 7 10 Cloudy OVC014 47 43     86% 44   30.15 30.15      
Apr 01 07:53 E 7 10 Cloudy OVC016 45 42     90% 41   30.14 30.13      
Apr 01 06:53 E 5 10 Cloudy OVC018 43 41     93% 40   30.11 30.11      
Apr 01 06:31 E 5 10 Mostly Cloudy BKN019 42 41     96% 39   30.11        
Apr 01 05:53 E 5 10 Clear CLR 42 41     96% 39   30.09 30.09      
Apr 01 03:53 E 5 10 Clear CLR 43 41     93% 40   30.07 30.06      
Apr 01 02:53 E 3 10 Clear CLR 44 41     89% 43   30.07 30.06      
Apr 01 01:53 ENE 3 10 Clear CLR 45 42     90% 44   30.05 30.05      
Apr 01 00:53 E 5 10 Clear CLR 46 42     86% 44   30.04 30.03      
Mar 31 22:53 ENE 6 10 Clear CLR 48 43     83% 45   30 30      
Mar 31 21:53 ENE 7 10 Clear CLR 49 43     80% 46   29.99 29.99      
Mar 31 20:53 ENE 8 10 Clear CLR 51 44     77%     29.97 29.96      
Mar 31 19:53 ENE 7 10 Clear CLR 56 45     67%     29.93 29.93      
Mar 31 18:53 5 10 Clear CLR 61 46     58%     29.91 29.91      
Mar 31 17:53 ENE 3 10 Clear CLR 65 46     50%     29.89 29.88      
Mar 31 16:53 Calm 10 Clear CLR 64 45     50%     29.89 29.88      
Mar 31 15:53 7 10 Clear CLR 64 46     52%     29.89 29.88      
Mar 31 14:53 7 10 Clear CLR 61 46     58%     29.91 29.9      
Mar 31 13:53 WNW 9 10 Clear CLR 59 45     60%     29.91 29.9      
Mar 31 13:16   10 Partly Cloudy SCT024 58 45     62%     29.91        
Mar 31 13:08 5 10 Mostly Cloudy BKN024 57 45     64%     29.92        
Mar 31 13:01 W 3 10 Partly Cloudy SCT023 58 45     62%     29.92        
Mar 31 11:53 3 10 Cloudy OVC018 53 44     71%     29.92 29.91      
Mar 31 10:53 5 10 Cloudy OVC016 51 43     74%     29.92 29.92      
Mar 31 10:31 6 10 Cloudy OVC015 50 43     77% 48   29.91        
Mar 31 09:53   10 Cloudy OVC014 49 43     80%     29.9 29.9      
Mar 31 09:45 3 10 Cloudy OVC014 49 43     80% 48   29.9        
Mar 31 08:53 NNW 6 10 Cloudy OVC015 49 42     77% 46   29.88 29.88      
Mar 31 06:53 5 10 Cloudy OVC015 47 44     90% 45   29.82 29.81      
Mar 31 06:32 Calm 10 Mostly Cloudy BKN015 47 43     86%     29.81        
Mar 31 06:24 Calm 10 Partly Cloudy SCT015 47 43     86%     29.81        
Mar 31 06:06 3 10 Mostly Cloudy BKN015 BKN025 47 43     86% 46   29.8        
Mar 31 05:53 NW 5 10 Cloudy OVC014 48 43     83% 46   29.8 29.8      
Mar 31 05:29 NNW 5 10 Cloudy OVC014 48 43     83% 46   29.79        
Mar 31 04:53 5 10 Cloudy OVC015 48 43     83% 46   29.79 29.78      
Mar 31 03:53 NNW 8 10 Cloudy OVC014 48 43     83% 44   29.78 29.77      
Mar 31 02:53 NNW 10 10 Cloudy OVC014 48 43     83% 43   29.76 29.76      
Mar 31 02:39 NNW 6 10 Cloudy BKN016 OVC020 48 43     83% 45   29.76        
Mar 31 02:20 NNW 9 10 Cloudy BKN014 OVC021 48 43     83% 44   29.76        
Mar 31 00:53 NW 9 10 Cloudy OVC016 49 43     80% 45   29.75 29.74      
Mar 30 23:53 6 10 Cloudy OVC016 49 43     80% 46   29.74 29.73      
Mar 30 23:29 6 10 Cloudy OVC017 49 43     80% 46   29.74        
Mar 30 21:53 6 10 Cloudy OVC020 49 42     77% 46   29.72 29.72      
Mar 30 20:53 W 7 10 Clear   49 41     74% 46   29.7 29.7      
Mar 30 19:53 7 10 Cloudy OVC027 50 41     71% 47   29.69 29.69      
Mar 30 18:53 7 10 Cloudy OVC029 50 41     71% 47   29.69 29.68      
Mar 30 17:53 W 7 10 Clear   51 42     71%     29.67 29.66      
Mar 30 16:53 W 9 10 Cloudy OVC025 51 42     71%     29.66 29.65      
Mar 30 16:36 W 8 10 Cloudy OVC028 51 41     68%     29.66        
Mar 30 15:53 W 11 10 Cloudy OVC030 52 41     66%     29.65 29.65      
Mar 30 13:53 W 9 10 Cloudy BKN030 OVC037 53 41     63%     29.64 29.63      
Mar 30 13:29 W 13 10 Cloudy OVC030 52 41     66%     29.64        
Mar 30 12:53 W 11 10 Cloudy OVC027 52 41     66%     29.65 29.63      
Mar 30 12:00 WSW 13 10 Clear   52 41     66%     29.65        
Mar 30 11:53 WSW 8 10 Clear   52 42     69%     29.65 29.63      
Mar 30 10:53 WSW 14 10 Mostly Cloudy BKN033 55 42     62%     29.64 29.62      
Mar 30 10:48 W 14 10 Mostly Cloudy BKN031 57 45     63%     29.64        
Mar 30 10:19 SW 13 10 Mostly Cloudy BKN028 57 45     64%     29.63        
Mar 30 09:53 N 5 10 Mostly Clear FEW028 FEW035 55 47     74%     29.63 29.61      
Mar 30 08:53 WSW 10 10 Cloudy BKN030 OVC034 55 48     77%     29.62 29.6      
Mar 30 08:51 WSW 8 10 Cloudy BKN030 OVC034 55 48     77%     29.62        
Mar 30 07:53 W 9 10 Cloudy BKN020 OVC027 55 50     83%     29.62 29.6      
Mar 30 07:25 W 8 10 Cloudy FEW010 BKN027 OVC065 56 53     90%     29.61        
Mar 30 07:18 W 9 10 Cloudy SCT017 BKN031 OVC090 56 54     93%     29.61        
Mar 30 05:53 SSW 5 10 Cloudy BKN038 OVC047 58 57     97%     29.62 29.59      
Mar 30 04:53 S 6 10 Mostly Cloudy BKN100 58 57     97%     29.6 29.58      
Mar 30 02:53 SSW 5 10 Mostly Cloudy BKN023 BKN100 BKN120 60 58     93%     29.64 29.61      
Mar 30 01:53 SSW 5 10 Mostly Cloudy FEW080 BKN110 61 59     93%     29.65 29.63      
Mar 30 00:53 S 3 10 Clear   63 60     90%     29.65 29.63      
Mar 30 00:28 SSW 11 10 Light Rain FEW038 SCT046 OVC085 64 61     90%     29.71        
Mar 30 00:18 S 9 8 Rain OVC085 64 61     90%     29.67        
Mar 30 00:01 S 10 7 Thunderstorms and Rain FEW055 OVC085 65 62     90%     29.68   0    
Mar 29 23:53 S 13 10 Light Rain OVC085 65 61     87%     29.67 29.65 0    
Mar 29 22:53 SW 3 10 Mostly Cloudy BKN110 63 62     97%     29.69 29.67      
Mar 29 22:19 Calm 10 Partly Cloudy FEW095 SCT120 63 62     97%     29.69        
Mar 29 21:29 Calm 10 Light Rain BKN043 OVC050 64 63     96%     29.71        
Mar 29 20:53 SSW 13 4 Thunderstorms and Rain and Fog/Mist FEW029 SCT044 OVC060 65 63     93%     29.71 29.69      
Mar 29 20:45 WSW 14 2.5 Thunderstorms and Heavy Rain and Fog/Mist FEW031 BKN050 OVC090 65 63     93%     29.71        
Mar 29 20:34   7 Thunderstorms and Rain FEW039 SCT055 BKN070 67 62     84%     29.66   0    
Mar 29 20:22 SE 9 10 Light Rain FEW055 SCT070 BKN095 70 61     73%     29.65   0    
Mar 29 19:53 SSE 10 10 Cloudy FEW045 BKN075 OVC090 69 61     75%     29.68 29.67      
Mar 29 19:25 S 8 10 Cloudy FEW050 BKN065 OVC100 70 61     73%     29.69        
Mar 29 18:53 S 9 10 Mostly Cloudy FEW040 SCT050 BKN060 71 61     70%   71 29.7 29.68     0
Mar 29 17:53 S 11 10 Cloudy SCT043 BKN055 OVC110 73 61     66%   73 29.71 29.69 0    
Mar 29 16:53 S 10 10 Cloudy SCT041 BKN060 OVC080 74 59     60%   74 29.72 29.7      
Mar 29 15:53 SSW 11 10 Cloudy BKN046 OVC065 75 58     55%   75 29.75 29.72      
Mar 29 14:53 S 11 10 Mostly Cloudy FEW040 BKN060 75 59     57%   75 29.75 29.72      
Mar 29 13:53 SSE 14 10 Mostly Clear FEW085 FEW110 72 60     66%   72 29.77 29.75      
Mar 29 12:53 S 11 10 Partly Cloudy SCT016 69 59     70%     29.8 29.78     0
Mar 29 12:37 S 11 10 Mostly Cloudy BKN015 BKN120 68 60     76%     29.8        
Mar 29 12:28 S 11 10 Mostly Cloudy BKN013 BKN018 BKN120 67 60     79%     29.8        
Mar 29 11:53 SE 14 10 Partly Cloudy FEW013 SCT110 62 59     90%     29.8   0    
Mar 29 11:23 E 13 10 Light Rain SCT016 BKN085 OVC110 59 57     93%     29.81   0    
Mar 29 10:53 SSE 8 9 Light Rain OVC015 59 54     83%     29.92 29.91 0    
Mar 29 10:29 S 9 10 Cloudy OVC015 60 54     80%     29.91        
Mar 29 09:53 SE 10 10 Cloudy OVC012 59 54     83%     29.88 29.86      
Mar 29 08:53 SE 8 10 Cloudy OVC010 57 53     87%     29.87 29.85      
Mar 29 08:41 SE 15 10 Cloudy OVC010 57 52     83%     29.87        
Mar 29 08:26 SE 8 10 Cloudy OVC009 57 53     87%     29.88        
Mar 29 07:53 ESE 13 10 Cloudy OVC011 55 52     89%     29.87 29.86      
Mar 29 06:53 SE 9 10 Cloudy OVC011 55 51     86%     29.9 29.88     0
Mar 29 05:53 SE 8 10 Cloudy OVC012 54 51     90%     29.87 29.85 0    
Mar 29 04:53 SE 8 10 Cloudy OVC013 55 50     83%     29.88 29.86      
Mar 29 03:53 SE 10 10 Cloudy OVC014 55 50     83%     29.89 29.87 0 0  
Mar 29 03:45 SE 11 10 Cloudy OVC014 55 50     83%     29.9   0    
Mar 29 02:53 SE 13 10 Cloudy BKN015 OVC050 55 50     83%     29.91 29.89 0    
Mar 29 01:53 ESE 11 10 Cloudy OVC016 55 50     83%     29.94 29.93      
Mar 29 01:40 SE 13 10 Cloudy BKN016 OVC042 56 50     80%     29.94        
Mar 29 00:53 ESE 13 10 Mostly Cloudy FEW016 BKN045 56 51     84%     29.95 29.93      
Mar 28 23:53 SE 11 10 Mostly Cloudy FEW026 BKN043 58 51     78%     29.97 29.95      
Mar 28 23:32 ESE 9 10 Mostly Cloudy SCT026 BKN050 BKN070 58 51     78%     29.97        
Mar 28 23:09 ESE 14 10 Cloudy BKN025 OVC065 59 52     78%     29.96        
Mar 28 22:53 ESE 10 10 Mostly Cloudy BKN065 59 52     78%     29.96 29.94      
Mar 28 21:53 SE 10 10 Partly Cloudy SCT060 61 53     75%     29.95 29.94      
Mar 28 20:53 SSE 9 10 Cloudy OVC038 62 52     70%     29.97 29.96      
Mar 28 19:53 SE 7 10 Mostly Cloudy BKN039 64 51     63%     29.96 29.94      
Mar 28 18:53 SE 9 10 Clear CLR 67 51     57%     29.93 29.92      
Mar 28 17:53 ESE 11 10 Clear CLR 69 51     53%     29.92 29.91      
Mar 28 16:53 ESE 9 10 Clear CLR 69 51     53%     29.92 29.9      
Mar 28 15:53 ESE 10 10 Mostly Clear FEW035 68 52     57%     29.94 29.92      
Mar 28 14:53 ESE 6 10 Partly Cloudy SCT033 67 51     57%     29.97 29.96      
Mar 28 13:53 5 10 Mostly Cloudy BKN030 BKN035 64 51     63%     30.01 30      
Mar 28 13:09 S 8 10 Cloudy OVC030 64 52     65%     30.03        
Mar 28 12:53 ESE 8 10 Cloudy BKN027 OVC033 63 52     67%     30.03 30.02      
Mar 28 12:36 S 8 10 Cloudy BKN026 OVC034 63 52     67%     30.04        
Mar 28 12:09 E 6 10 Cloudy FEW020 OVC036 63 52     67%     30.04        
Mar 28 11:53 5 10 Cloudy BKN020 BKN025 OVC035 62 52     70%     30.05 30.04      
Mar 28 10:53 SE 8 10 Cloudy BKN016 OVC032 58 51     78%     30.05 30.04      
Mar 28 10:48 SSE 7 10 Cloudy BKN016 OVC032 57 52     82%     30.05